Location: Bremen
(53.0793°N, 8.8017°E)
Time: 22:25:59
(UTC+02:00)

Vanguard 2 Rocket - Pass Details

Date: 17 April 2024
Orbit: 556 x 3304 km, 32.9° (Epoch: 20 May)

Event Time Altitude Azimuth Distance (km) Brightness Sun altitude
Rises 22:25:44 0° 207° (SSW) 6,501 11.1 -15.6°
Reaches altitude 10° 22:30:52 10° 196° (SSW) 5,805 10.7 -16.2°
Maximum altitude 22:44:41 26° 149° (SSE) 4,972 10.0 -17.6°
Drops below altitude 10° 22:58:57 10° 102° (ESE) 6,040 10.6 -18.9°
Sets 23:04:23 0° 92° (E) 6,808 11.0 -19.4°
